Content
SEND FEEDBACK

Daily
Averages
Monthly
Summary
Mexico

SAN MARTINIANO, QUINTANA ROO


Home > North America > Mexico > Quintana Roo
Elevation: 49 feet     Latitude: 20 47N     Longitude: 087 16W

WEATHER
 
SELECT A DAY
Number of Records: 196,008;   Date Range: 2/21/06 - 7/7/14
 
SHARE

PRINT THIS DATA

[ ← Previous Day ]
WEATHER ALMANAC - DECEMBER 22, 2013
[ Next Day → ]
[ °C ]   °F
Weather ElementAverageHighLow
Temperature76.6 °F87.8 °F (2:55 pm)71.6 °F (12:35 am)
Dewpoint38.6 °F69.8 °F (10:15 am) (7:00 pm)
Humidity63.3 %94 % (9:15 pm)43 % (2:55 pm)
Barometer30.13 in30.17 in (11:35 am)30.09 in (2:15 pm)
Wind Speed6.7 mph16.1 mph (10:35 am)
Wind Gust25.3 mph (10:35 am)
Weather ElementAverage
Visibility9.7 mi
Wind DirectionSSE (155.5 °)

Weather ElementTotal
Precipitation---
Cooling Degree Days14.7 (Base 65)
Growing Degree Days29.7 (Base 50)
Averaged from 71 records on December 22, 2013
WEATHER CONDITIONS BREAKOUT
WIND DIRECTION BREAKOUT
WEATHER BY HOUR - DECEMBER 22, 2013
[ °C ]   °F
Local TimeTemperatureDewpointHumidityBarometerVisibilityWind DirectionWind SpeedGust SpeedPrecipitationEventsConditions
12:35 AM71.6 °F0.0 °F30.12 in10.0 miSE (140°)6.9 mphClear
12:55 AM71.6 °F0.0 °F30.11 in10.0 miSE (130°)6.9 mphClear
1:15 AM71.6 °F0.0 °F30.11 in10.0 miSE (140°)4.6 mphClear
1:35 AM71.6 °F0.0 °F30.11 in10.0 miSE (140°)5.8 mphClear
1:55 AM71.6 °F0.0 °F30.11 in10.0 miSE (140°)5.8 mphClear
2:15 AM71.6 °F0.0 °F30.11 in10.0 miSE (130°)5.8 mphClear
2:35 AM71.6 °F0.0 °F30.11 in10.0 miSE (130°)3.5 mphClear
2:55 AM71.6 °F0.0 °F30.11 in10.0 miSE (140°)4.6 mphClear
3:15 AM71.6 °F0.0 °F30.10 in10.0 miSE (130°)5.8 mphClear
3:35 AM71.6 °F0.0 °F30.10 in10.0 miSE (130°)4.6 mphClear
3:55 AM71.6 °F0.0 °F30.11 in10.0 miSE (130°)5.8 mphClear
4:15 AM71.6 °F0.0 °F30.11 in10.0 miSE (140°)5.8 mphClear
4:35 AM71.6 °F0.0 °F30.11 in10.0 miSE (130°)5.8 mphClear
4:55 AM71.6 °F0.0 °F30.11 in7.0 miSE (130°)5.8 mphClear
5:15 AM71.6 °F0.0 °F30.11 in7.0 miSE (140°)6.9 mphClear
5:35 AM71.6 °F0.0 °F30.11 in10.0 miSE (140°)8.1 mphClear
5:55 AM71.6 °F0.0 °F30.11 in10.0 miSE (140°)6.9 mphClear
6:15 AM71.6 °F0.0 °F30.12 in10.0 miSSE (150°)5.8 mphClear
6:35 AM71.6 °F0.0 °F30.13 in10.0 miSSE (150°)5.8 mphClear
6:55 AM71.6 °F0.0 °F30.13 in10.0 miSE (140°)5.8 mphClear
7:15 AM71.6 °F0.0 °F30.14 in7.0 miSE (140°)4.6 mphClear
7:35 AM71.6 °F0.0 °F30.14 in7.0 miSE (140°)3.5 mphClear
7:55 AM71.6 °F0.0 °F30.15 in7.0 miSE (140°)5.8 mphClear
8:15 AM71.6 °F0.0 °F30.15 in7.0 miSSE (150°)5.8 mphClear
8:35 AM71.6 °F0.0 °F30.15 in7.0 miSE (140°)4.6 mphClear
8:55 AM73.4 °F0.0 °F30.15 in10.0 miSSE (150°)8.1 mphClear
9:15 AM75.2 °F0.0 °F30.15 in10.0 miSSE (150°)9.2 mph18.4 mphClear
9:35 AM77.0 °F0.0 °F30.16 in10.0 miSSE (160°)11.5 mph23.0 mphClear
9:55 AM78.8 °F0.0 °F30.16 in10.0 miSSE (160°)11.5 mph17.3 mphScattered Clouds
10:15 AM78.8 °F69.8 °F74 %30.16 in10.0 miSouth (180°)12.7 mph20.7 mphScattered Clouds
10:35 AM80.6 °F68.0 °F65 %30.16 in10.0 miSSE (160°)16.1 mph25.3 mphScattered Clouds
10:55 AM82.4 °F68.0 °F62 %30.16 in10.0 miSSE (160°)16.1 mph21.9 mphMostly Cloudy
11:15 AM82.4 °F66.2 °F58 %30.16 in10.0 miSouth (170°)13.8 mph19.6 mphMostly Cloudy
11:35 AM82.4 °F66.2 °F58 %30.17 in10.0 miSouth (190°)10.4 mphMostly Cloudy
11:55 AM82.4 °F66.2 °F58 %30.16 in10.0 miSouth (180°)11.5 mphMostly Cloudy
12:15 PM84.2 °F66.2 °F55 %30.15 in10.0 miSouth (170°)9.2 mphMostly Cloudy
12:35 PM86.0 °F66.2 °F51 %30.14 in10.0 miSouth (180°)11.5 mph17.3 mphScattered Clouds
12:55 PM84.2 °F64.4 °F51 %30.12 in10.0 miSSE (160°)11.5 mphScattered Clouds
1:15 PM84.2 °F64.4 °F51 %30.12 in10.0 miSouth (170°)9.2 mph17.3 mphScattered Clouds
1:35 PM86.0 °F64.4 °F48 %30.10 in10.0 miSouth (180°)11.5 mph16.1 mphScattered Clouds
1:55 PM86.0 °F62.6 °F45 %30.10 in10.0 miSouth (190°)11.5 mph17.3 mphScattered Clouds
2:15 PM84.2 °F64.4 °F51 %30.09 in10.0 miSouth (180°)9.2 mphScattered Clouds
2:35 PM86.0 °F62.6 °F45 %30.09 in10.0 miSouth (190°)12.7 mph17.3 mphScattered Clouds
2:55 PM87.8 °F62.6 °F43 %30.09 in10.0 miSouth (180°)12.7 mphScattered Clouds
3:15 PM84.2 °F62.6 °F48 %30.10 in10.0 miSSW (200°)6.9 mphScattered Clouds
3:35 PM86.0 °F62.6 °F45 %30.10 in10.0 miSouth (180°)5.8 mphScattered Clouds
3:55 PM86.0 °F60.8 °F43 %30.10 in10.0 miSSW (200°)8.1 mphClear
4:15 PM84.2 °F62.6 °F48 %30.10 in10.0 miSSW (210°)9.2 mphClear
4:35 PM86.0 °F62.6 °F45 %30.11 in10.0 miSSW (200°)6.9 mphClear
4:55 PM84.2 °F62.6 °F48 %30.11 in10.0 miSouth (190°)9.2 mphClear
5:15 PM82.4 °F62.6 °F51 %30.12 in10.0 miSSW (200°)4.6 mphClear
5:35 PM80.6 °F62.6 °F54 %30.12 in10.0 miSSW (210°)3.5 mphScattered Clouds
5:55 PM80.6 °F64.4 °F58 %30.12 in10.0 miCalmScattered Clouds
6:15 PM78.8 °F64.4 °F61 %30.13 in10.0 miSW (220°)4.6 mphMostly Cloudy
6:35 PM78.8 °F66.2 °F65 %30.14 in10.0 miSW (220°)3.5 mphMostly Cloudy
6:55 PM78.8 °F64.4 °F61 %30.14 in10.0 miSSW (210°)3.5 mphMostly Cloudy
7:15 PM77.0 °F66.2 °F69 %30.14 in10.0 miSW (230°)3.5 mphScattered Clouds
7:35 PM77.0 °F64.4 °F65 %30.15 in10.0 miSSW (200°)3.5 mphScattered Clouds
7:55 PM75.2 °F64.4 °F69 %30.14 in10.0 miSouth (190°)3.5 mphClear
8:15 PM73.4 °F66.2 °F78 %30.15 in10.0 miSouth (190°)3.5 mphClear
8:35 PM73.4 °F66.2 °F78 %30.15 in10.0 miCalmClear
8:55 PM71.6 °F66.2 °F83 %30.15 in10.0 miSSE (160°)3.5 mphClear
9:15 PM71.6 °F69.8 °F94 %30.15 in10.0 miSE (130°)4.6 mphClear
9:35 PM73.4 °F66.2 °F78 %30.16 in10.0 miSE (140°)3.5 mphClear
9:55 PM71.6 °F66.2 °F83 %30.16 in10.0 miCalmClear
10:15 PM71.6 °F69.8 °F94 %30.16 in10.0 miSSE (150°)3.5 mphScattered Clouds
10:35 PM71.6 °F68.0 °F88 %30.17 in10.0 miSE (140°)3.5 mphMostly Cloudy
10:55 PM71.6 °F66.2 °F83 %30.17 in10.0 miSE (130°)3.5 mphMostly Cloudy
11:15 PM71.6 °F68.0 °F88 %30.17 in10.0 miSE (140°)4.6 mphScattered Clouds
11:35 PM71.6 °F66.2 °F83 %30.17 in10.0 miSE (140°)3.5 mphClear
11:55 PM71.6 °F66.2 °F83 %30.17 in10.0 miSSE (150°)4.6 mphClear
Hourly data recorded from KPCM, located miles away from San Martiniano, Quintana Roo







STORIES FROM OUR PARTNERS